TimeMST,TemperatureF,Dew PointF,Humidity,Sea Level PressureIn,VisibilityMPH,Wind Direction,Wind SpeedMPH,Gust SpeedMPH,PrecipitationIn,Events,Conditions,WindDirDegrees,DateUTC
12:15 AM,-20.2,-27.4,69,30.32,-9999.0,Calm,Calm,-,N/A,,Clear,0,2013-01-03 07:15:00
12:35 AM,-20.2,-27.4,69,30.32,-9999.0,Calm,Calm,-,N/A,,Scattered Clouds,0,2013-01-03 07:35:00
12:55 AM,-20.2,-27.4,69,30.31,-9999.0,Calm,Calm,-,N/A,,Overcast,0,2013-01-03 07:55:00
1:15 AM,-20.2,-27.4,69,30.32,-9999.0,Calm,Calm,-,N/A,,Overcast,0,2013-01-03 08:15:00
1:35 AM,-22.0,-29.2,69,30.32,-9999.0,Calm,Calm,-,N/A,,Overcast,0,2013-01-03 08:35:00
1:55 AM,-20.2,-27.4,69,30.33,-9999.0,Calm,Calm,-,N/A,,Overcast,0,2013-01-03 08:55:00
2:15 AM,-22.0,-31.0,63,30.34,-9999.0,Calm,Calm,-,N/A,,Overcast,0,2013-01-03 09:15:00
2:35 AM,-22.0,-31.0,63,30.35,-9999.0,Calm,Calm,-,N/A,,Overcast,0,2013-01-03 09:35:00
2:55 AM,-20.2,-27.4,69,30.35,-9999.0,Calm,Calm,-,N/A,,Overcast,0,2013-01-03 09:55:00
3:15 AM,-20.2,-27.4,69,30.35,-9999.0,Calm,Calm,-,N/A,,Overcast,0,2013-01-03 10:15:00
3:35 AM,-20.2,-27.4,69,30.36,-9999.0,Calm,Calm,-,N/A,,Overcast,0,2013-01-03 10:35:00
3:55 AM,-20.2,-27.4,69,30.36,-9999.0,Calm,Calm,-,N/A,,Overcast,0,2013-01-03 10:55:00
4:15 AM,-20.2,-27.4,69,30.36,-9999.0,Calm,Calm,-,N/A,,Overcast,0,2013-01-03 11:15:00
4:34 AM,-20.2,-27.4,69,30.36,-9999.0,Calm,Calm,-,N/A,,Overcast,0,2013-01-03 11:34:00
4:55 AM,-20.2,-27.4,69,30.37,-9999.0,Calm,Calm,-,N/A,,Overcast,0,2013-01-03 11:55:00
5:15 AM,-22.0,-31.0,63,30.37,-9999.0,Calm,Calm,-,N/A,,Overcast,0,2013-01-03 12:15:00
5:35 AM,-22.0,-31.0,63,30.38,-9999.0,Calm,Calm,-,N/A,,Overcast,0,2013-01-03 12:35:00
5:55 AM,-22.0,-31.0,63,30.38,-9999.0,Calm,Calm,-,N/A,,Overcast,0,2013-01-03 12:55:00
6:15 AM,-22.0,-31.0,63,30.39,-9999.0,Calm,Calm,-,N/A,,Overcast,0,2013-01-03 13:15:00
6:35 AM,-23.8,-32.8,63,30.40,-9999.0,Calm,Calm,-,N/A,,Overcast,0,2013-01-03 13:35:00
6:55 AM,-23.8,-32.8,63,30.41,-9999.0,Calm,Calm,-,N/A,,Overcast,0,2013-01-03 13:55:00
7:15 AM,-25.6,-34.6,63,30.41,-9999.0,Calm,Calm,-,N/A,,Overcast,0,2013-01-03 14:15:00
7:35 AM,-25.6,-34.6,63,30.41,-9999.0,Calm,Calm,-,N/A,,Overcast,0,2013-01-03 14:35:00
7:55 AM,-25.6,-34.6,63,30.42,-9999.0,Calm,Calm,-,N/A,,Overcast,0,2013-01-03 14:55:00
8:35 AM,-22.0,-31.0,63,30.42,-9999.0,Calm,Calm,-,N/A,,Overcast,0,2013-01-03 15:35:00
8:55 AM,-20.2,-27.4,69,30.43,-9999.0,Calm,Calm,-,N/A,,Overcast,0,2013-01-03 15:55:00
9:15 AM,-18.4,-25.6,70,30.43,-9999.0,Calm,Calm,-,N/A,,Overcast,0,2013-01-03 16:15:00
9:35 AM,-16.6,-23.8,70,30.44,-9999.0,Calm,Calm,-,N/A,,Overcast,0,2013-01-03 16:35:00
9:55 AM,-14.8,-22.0,70,30.44,-9999.0,Calm,Calm,-,N/A,,Mostly Cloudy,0,2013-01-03 16:55:00
10:15 AM,-9.4,-16.6,71,30.44,-9999.0,Calm,Calm,-,N/A,,Clear,0,2013-01-03 17:15:00
10:35 AM,-9.4,-16.6,71,30.43,-9999.0,Calm,Calm,-,N/A,,Clear,0,2013-01-03 17:35:00
10:55 AM,-7.6,-13.0,77,30.43,-9999.0,Calm,Calm,-,N/A,Snow,Light Snow,0,2013-01-03 17:55:00
11:14 AM,-7.6,-14.8,71,30.42,-9999.0,Calm,Calm,-,N/A,Snow,Light Snow,0,2013-01-03 18:14:00
11:34 AM,-5.8,-11.2,77,30.41,-9999.0,Calm,Calm,-,N/A,,Clear,0,2013-01-03 18:34:00
11:55 AM,-4.0,-9.4,78,30.40,-9999.0,Calm,Calm,-,N/A,Snow,Light Snow,0,2013-01-03 18:55:00
12:35 PM,-2.2,-7.6,78,30.38,-9999.0,Calm,Calm,-,N/A,Snow,Light Snow,0,2013-01-03 19:35:00
12:55 PM,-0.4,-5.8,78,30.36,-9999.0,Calm,Calm,-,N/A,Snow,Light Snow,0,2013-01-03 19:55:00
1:15 PM,-0.4,-7.6,72,30.36,-9999.0,Calm,Calm,-,N/A,,Clear,0,2013-01-03 20:15:00
1:35 PM,-0.4,-5.8,78,30.35,-9999.0,Calm,Calm,-,N/A,,Clear,0,2013-01-03 20:35:00
1:55 PM,1.4,-5.8,72,30.35,-9999.0,Calm,Calm,-,N/A,,Clear,0,2013-01-03 20:55:00
2:15 PM,-0.4,-5.8,78,30.35,-9999.0,Calm,Calm,-,N/A,Snow,Light Snow,0,2013-01-03 21:15:00
2:54 PM,-0.4,-7.6,72,30.35,-9999.0,Calm,Calm,-,N/A,,Clear,0,2013-01-03 21:54:00
3:15 PM,-0.4,-9.4,66,30.35,-9999.0,Calm,Calm,-,N/A,,Clear,0,2013-01-03 22:15:00
3:35 PM,-2.2,-9.4,71,30.35,-9999.0,Calm,Calm,-,N/A,,Clear,0,2013-01-03 22:35:00
3:55 PM,-4.0,-11.2,71,30.35,-9999.0,Calm,Calm,-,N/A,,Clear,0,2013-01-03 22:55:00
4:15 PM,-5.8,-13.0,71,30.36,-9999.0,Calm,Calm,-,N/A,,Clear,0,2013-01-03 23:15:00
4:35 PM,-7.6,-14.8,71,30.36,-9999.0,Calm,Calm,-,N/A,,Clear,0,2013-01-03 23:35:00
4:55 PM,-7.6,-16.6,65,30.37,-9999.0,Calm,Calm,-,N/A,,Clear,0,2013-01-03 23:55:00
5:15 PM,-9.4,-16.6,71,30.37,-9999.0,Calm,Calm,-,N/A,,Clear,0,2013-01-04 00:15:00
5:35 PM,-9.4,-16.6,71,30.38,-9999.0,Calm,Calm,-,N/A,,Clear,0,2013-01-04 00:35:00
5:54 PM,-13.0,-20.2,70,30.38,-9999.0,Calm,Calm,-,N/A,,Clear,0,2013-01-04 00:54:00
6:15 PM,-13.0,-18.4,77,30.39,-9999.0,Calm,Calm,-,N/A,,Clear,0,2013-01-04 01:15:00
6:35 PM,-14.8,-23.8,64,30.39,-9999.0,Calm,Calm,-,N/A,,Clear,0,2013-01-04 01:35:00
6:55 PM,-14.8,-22.0,70,30.39,-9999.0,Calm,Calm,-,N/A,,Clear,0,2013-01-04 01:55:00
7:15 PM,-14.8,-23.8,64,30.40,-9999.0,Calm,Calm,-,N/A,,Clear,0,2013-01-04 02:15:00
7:35 PM,-16.6,-23.8,70,30.40,-9999.0,Calm,Calm,-,N/A,,Clear,0,2013-01-04 02:35:00
7:55 PM,-18.4,-25.6,70,30.40,-9999.0,Calm,Calm,-,N/A,,Clear,0,2013-01-04 02:55:00
8:15 PM,-18.4,-25.6,70,30.39,-9999.0,Calm,Calm,-,N/A,,Clear,0,2013-01-04 03:15:00
8:35 PM,-18.4,-25.6,70,30.39,-9999.0,Calm,Calm,-,N/A,,Clear,0,2013-01-04 03:35:00
8:55 PM,-18.4,-25.6,70,30.39,-9999.0,Calm,Calm,-,N/A,,Clear,0,2013-01-04 03:55:00
9:15 PM,-18.4,-27.4,63,30.40,-9999.0,Calm,Calm,-,N/A,,Clear,0,2013-01-04 04:15:00
9:35 PM,-20.2,-27.4,69,30.40,-9999.0,Calm,Calm,-,N/A,,Clear,0,2013-01-04 04:35:00
9:55 PM,-18.4,-27.4,63,30.41,-9999.0,Calm,Calm,-,N/A,,Clear,0,2013-01-04 04:55:00
10:15 PM,-20.2,-27.4,69,30.40,-9999.0,Calm,Calm,-,N/A,,Clear,0,2013-01-04 05:15:00
10:35 PM,-20.2,-27.4,69,30.41,-9999.0,Calm,Calm,-,N/A,,Clear,0,2013-01-04 05:35:00
10:55 PM,-20.2,-27.4,69,30.41,-9999.0,Calm,Calm,-,N/A,,Clear,0,2013-01-04 05:55:00
11:15 PM,-22.0,-31.0,63,30.41,-9999.0,Calm,Calm,-,N/A,,Clear,0,2013-01-04 06:15:00
11:35 PM,-20.2,-27.4,69,30.41,-9999.0,Calm,Calm,-,N/A,,Clear,0,2013-01-04 06:35:00
11:55 PM,-22.0,-29.2,69,30.40,-9999.0,Calm,Calm,-,N/A,,Clear,0,2013-01-04 06:55:00